CAPE
0 0 0 0 0 45 42 7 16 26 0 0 7 448 908 1276 1111 1146 989 601 560 561 557 535 599 835 883 927 1295 1417 1372 1571
0 0 0 0 0 0 0 0 2 1 0 11 56 345 683 864 1163 1168 1008 845 670 615 536 693 851 884 1028 1021 1194 1416 1313 1444
0 0 0 0 0 0 0 0 0 0 0 0 8 150 431 625 842 1054 1317 1107 898 725 725 723 928 1007 986 1037 1176 1361 1447 1348
0 0 0 0 0 0 0 0 0 0 15 0 0 141 300 484 766 999 1212 1485 1340 1105 915 877 930 1032 997 1152 1078 934 1249 1427
1 0 0 0 0 1 2 1 8 0 2 2 214 408 431 394 714 1237 1283 1502 1602 1440 1384 1305 1214 1228 1152 1061 1118 1076 1200 1307
22 9 0 0 0 0 0 0 0 0 0 0 17 345 483 555 754 959 1430 1539 1617 1649 1620 1549 1450 1421 1411 1289 1155 1174 999 1205
0 0 8 3 4 0 0 2 15 24 4 3 0 0 260 652 1032 841 1125 1376 1634 1673 1662 1608 1612 1537 1555 1415 1304 1286 1136 1048
9 0 0 6 3 0 0 0 0 0 0 0 23 91 432 808 940 952 1060 1126 1212 1307 1134 1031 1039 1120 1386 1471 1564 1718 1409 1258
10 0 0 0 0 0 0 0 0 0 0 0 52 563 674 682 839 940 1105 1095 1123 1086 946 903 452 541 765 829 963 999 1125 1399
44 1 0 20 0 0 0 0 0 0 0 9 31 301 289 162 304 503 563 980 1166 849 730 415 291 332 262 436 459 483 501 416
61 22 28 0 0 0 0 0 0 0 0 1 28 1 91 63 72 162 359 679 687 582 436 175 199 2 36 217 295 253 226 93
21 82 29 50 0 0 0 0 0 0 0 0 0 0 6 26 104 210 336 383 268 114 61 1 1 17 16 91 105 119 13 1
15 61 43 12 5 0 0 0 0 0 0 0 0 64 142 125 147 221 246 210 142 35 2 2 3 4 14 72 108 4 3 3
0 21 16 0 6 0 0 0 0 0 0 0 51 143 56 121 121 75 39 3 0 2 6 3 3 26 69 159 58 14 6 4
0 7 102 12 0 0 9 0 8 2 12 21 199 107 94 52 20 0 0 7 6 0 2 2 4 6 91 114 69 33 3 2
0 4 15 9 235 194 75 67 95 14 59 18 97 75 10 2 0 6 13 13 10 14 11 6 3 49 215 128 86 47 2 4
11 96 62 61 260 257 288 258 140 194 168 107 17 6 12 1 7 9 2 0 0 3 5 5 7 7 132 61 99 50 3 13
0 302 66 137 297 478 359 240 207 113 57 17 27 23 3 0 4 1 0 2 4 5 3 2 2 11 61 127 221 53 4 34
145 376 601 707 429 467 379 327 229 148 112 85 71 0 12 0 4 0 4 12 4 4 4 2 2 37 125 177 252 111 4 34
CIN
-0 -0 -0 -0 -0 -5 -9 -10 -6 -6 -0 -0 -5 -19 -20 -31 -48 -51 -55 -55 -47 -35 -41 -117 -67 -64 -73 -59 -70 -69 -70 -49
-0 -0 -0 -0 -0 -0 -0 -0 -3 -2 -0 -4 -12 -6 -22 -29 -31 -47 -67 -72 -54 -60 -37 -40 -57 -48 -58 -69 -66 -70 -71 -60
-0 -0 -0 -0 -0 -0 -1 -1 -0 -0 -0 -0 -2 -3 -9 -20 -33 -38 -49 -80 -80 -76 -71 -49 -49 -37 -59 -53 -61 -56 -51 -53
-0 -0 -0 -0 -0 -0 -0 -0 -0 -0 -6 -0 -0 -3 -2 -30 -34 -54 -82 -64 -92 -110 -103 -76 -73 -56 -42 -40 -56 -75 -27 -42
-1 -0 -0 -0 -0 -3 -4 -3 -3 -0 -1 -9 -4 -8 -18 -21 -46 -60 -77 -85 -88 -83 -95 -86 -76 -70 -56 -48 -46 -28 -53 -36
-7 -6 -1 -0 -0 -0 -0 -4 -0 -0 -0 -0 -5 -10 -11 -37 -62 -64 -72 -82 -77 -73 -78 -86 -88 -84 -72 -56 -49 -58 -66 -34
-0 -0 -6 -3 -5 -0 -0 -6 -4 -7 -3 -3 -0 -0 -3 -30 -68 -88 -80 -77 -86 -82 -96 -104 -94 -85 -72 -61 -54 -51 -59 -46
-5 -0 -0 -7 -5 -0 -0 -0 -0 -0 -0 -0 -46 -15 -10 -36 -59 -61 -70 -94 -113 -122 -140 -160 -158 -131 -76 -58 -37 -24 -41 -50
-8 -0 -0 -0 -0 -0 -0 -0 -0 -0 -0 -0 -66 -42 -41 -36 -41 -42 -54 -79 -101 -120 -133 -144 -237 -202 -133 -112 -85 -71 -49 -26
-18 -26 -3 -5 -0 -0 -0 -0 -0 -0 -0 -118 -85 -40 -59 -113 -85 -76 -71 -76 -90 -140 -138 -194 -208 -186 -213 -138 -126 -117 -96 -107
-6 -33 -5 -0 -0 -0 -0 -0 -0 -0 -0 -32 -154 -14 -141 -186 -172 -103 -95 -101 -128 -128 -140 -197 -170 -15 -249 -150 -113 -114 -101 -144
-32 -7 -3 -2 -0 -0 -0 -0 -0 -0 -0 -0 -0 -0 -23 -223 -146 -130 -123 -132 -145 -151 -146 -0 -0 -148 -194 -126 -102 -76 -109 -0
-37 -5 -7 -52 -67 -0 -0 -0 -0 -0 -0 -0 -0 -19 -137 -148 -120 -94 -94 -96 -89 -78 -0 -0 -0 -0 -106 -99 -56 -18 -0 -0
-1 -7 -5 -42 -108 -0 -0 -0 -0 -0 -0 -0 -45 -82 -124 -117 -123 -116 -104 -48 -0 -0 -0 -0 -0 -98 -97 -31 -94 -79 -6 -0
-0 -27 -72 -66 -0 -0 -25 -0 -87 -44 -58 -54 -36 -51 -86 -113 -151 -8 -0 -0 -0 -1 -2 -0 -0 -0 -46 -30 -62 -90 -0 -0
-0 -77 -50 -51 -99 -89 -82 -57 -65 -69 -74 -93 -43 -84 -143 -181 -0 -0 -0 -0 -0 -0 -0 -0 -0 -85 -31 -17 -51 -65 -0 -0
-25 -125 -126 -79 -95 -109 -110 -100 -108 -101 -88 -79 -117 -141 -130 -100 -0 -0 -0 -0 -5 -1 -0 -0 -1 -30 -4 -38 -25 -23 -1 -1
-0 -91 -43 -20 -103 -138 -136 -117 -128 -135 -138 -139 -112 -117 -153 -0 -0 -0 -0 -0 -0 -0 -0 -0 -0 -37 -22 -15 -5 -16 -0 -32
-84 -151 -83 -20 -106 -146 -119 -123 -141 -143 -139 -120 -87 -0 -132 -0 -0 -0 -0 -0 -6 -3 -0 -0 -0 -38 -9 -9 -5 -5 -37 -8
Wind_Speed
7 4 5 4 11 27 31 22 26 21 19 23 20 19 18 16 15 11 6 17 16 16 13 16 14 14 10 9 8 9 11 8
6 8 8 13 8 14 25 31 28 26 24 22 15 16 15 14 12 10 9 6 10 15 16 13 12 9 10 11 12 8 8 7
11 9 4 5 8 24 28 27 32 34 30 22 18 15 13 11 11 12 11 8 5 7 7 7 7 7 8 7 8 7 6 6
14 14 22 20 8 14 24 28 30 32 22 15 21 12 14 11 11 11 12 9 7 4 2 2 1 2 5 5 7 9 11 11
20 16 18 12 10 22 27 30 27 27 21 13 13 14 15 12 12 13 12 10 9 8 6 7 8 9 9 8 9 8 7 10
23 21 10 12 12 23 27 25 27 28 30 14 14 17 13 12 12 11 10 10 10 10 11 10 10 11 13 14 14 12 13 15
34 25 13 8 9 22 33 33 30 22 27 25 19 17 13 12 11 10 9 9 10 11 12 12 12 13 15 16 16 17 16 16
32 26 26 24 23 23 31 34 30 32 29 25 20 21 16 14 9 9 9 9 10 11 12 13 14 15 16 16 17 19 20 23
31 20 23 33 25 29 31 30 32 34 31 19 21 17 14 12 11 10 9 9 10 12 13 14 15 16 17 19 20 21 23 24
28 18 33 25 18 27 33 34 32 32 27 22 20 15 15 15 13 12 13 13 12 13 14 15 15 16 19 19 20 22 24 26
26 29 23 23 23 26 28 30 24 24 17 14 14 14 16 15 14 13 13 12 12 14 15 15 16 17 18 20 21 23 26 29
30 33 36 25 16 16 18 30 17 18 15 13 14 19 16 12 12 13 13 12 13 14 13 14 15 16 17 19 22 24 27 31
33 31 27 17 11 8 19 18 12 12 17 18 20 21 13 14 15 15 14 14 13 13 14 14 15 14 16 18 21 24 27 31
33 30 25 8 8 15 18 14 13 14 14 14 15 15 16 16 15 15 15 15 14 14 15 14 12 12 14 16 19 21 26 30
31 29 16 5 11 6 15 12 14 13 12 12 14 16 16 17 17 17 18 16 15 10 12 14 10 10 10 14 17 20 24 28
29 28 19 10 14 10 12 13 13 13 12 13 14 16 16 16 15 16 14 14 13 9 7 6 6 7 10 12 15 18 22 27
30 22 16 12 14 10 11 11 13 14 14 13 13 14 12 11 12 13 12 12 11 8 6 5 5 3 6 10 13 16 20 24
35 20 18 24 10 10 8 9 12 12 14 14 12 9 9 10 11 12 12 12 11 10 8 6 6 5 5 8 12 17 19 22
25 21 22 21 4 9 8 8 11 14 14 10 7 7 8 9 10 11 12 12 11 10 9 8 7 9 8 6 11 16 19 18
Wind_Direction
296 288 290 192 205 263 268 277 270 279 284 280 277 275 276 280 284 306 34 144 147 153 152 162 167 170 166 170 168 171 168 166
269 288 292 285 201 267 264 260 265 269 272 277 280 272 274 281 297 319 338 72 122 143 152 152 161 171 174 175 171 174 183 191
277 255 241 260 273 260 264 265 260 261 265 269 270 276 273 285 298 302 312 336 77 120 127 139 149 164 183 241 210 213 238 233
266 278 268 272 194 269 267 262 263 263 274 283 270 268 268 280 304 318 322 339 354 23 360 333 318 296 284 224 196 228 264 266
275 281 274 256 260 267 266 264 261 260 270 294 276 269 267 279 299 311 317 329 336 338 339 331 319 314 309 297 279 269 238 262
261 275 271 254 256 261 259 262 258 259 257 280 274 266 271 280 295 306 319 330 339 341 334 328 319 314 308 300 295 288 280 282
251 274 275 264 261 265 249 251 257 266 259 261 272 268 272 278 289 303 317 329 335 338 337 334 325 316 310 302 297 292 292 286
255 264 260 263 264 269 254 247 259 254 261 269 274 269 270 278 286 298 309 320 329 336 336 332 324 315 310 306 301 297 295 291
252 261 260 248 260 257 251 256 256 253 261 277 273 276 277 282 290 299 311 319 321 322 324 323 322 315 308 305 300 296 292 292
251 258 247 262 277 263 254 256 259 258 268 272 277 283 287 292 298 304 308 311 315 317 316 319 318 314 309 307 303 298 294 292
247 249 264 268 275 272 270 264 272 269 279 284 287 292 294 300 306 310 311 317 318 317 314 314 312 310 307 304 304 301 296 294
245 246 245 268 288 293 286 264 284 277 280 286 288 285 297 315 319 320 321 321 316 316 317 314 313 312 309 307 304 303 302 298
245 247 259 282 295 301 268 287 300 287 281 284 284 290 311 321 324 323 322 318 317 318 314 312 312 311 310 310 311 312 310 308
244 244 256 282 286 272 285 305 309 304 301 297 298 303 307 314 321 325 323 315 315 316 314 310 313 314 311 313 321 323 320 318
243 245 269 267 291 288 304 306 309 318 325 316 309 308 310 314 319 321 318 316 315 327 318 304 312 316 321 322 328 333 333 331
252 245 258 266 289 307 304 305 315 321 332 329 320 316 317 321 326 326 332 333 328 345 346 331 320 311 321 335 341 339 341 343
248 257 258 264 279 297 306 312 315 321 325 329 331 328 331 349 339 342 352 0 356 12 28 51 63 9 341 344 349 354 349 352
242 263 274 266 269 286 300 318 315 320 324 326 332 341 354 3 352 2 5 21 28 35 44 47 71 74 44 340 352 0 354 351
254 266 269 267 254 280 298 320 314 316 321 331 340 342 356 359 6 10 18 21 23 25 29 41 66 98 86 31 11 14 15 5